Location: Fourilles
(46.2412°N, 3.1956°E)
Time: 21:19:59
(UTC+00:00)

Daily predictions for brighter satellites

Satellite Brightness Start Highest point End
(mag) Time Altitude Azimuth Time Altitude Azimuth Time Altitude Azimuth
Cosmos 2082 4.4 17:04:02 10° S 17:09:03 35° ESE 17:14:07 10° NE
Cosmos 2219 3.2 17:03:39 10° SSW 17:09:16 86° ESE 17:14:58 10° NNE
USA 267 3.4 17:02:44 10° NE 17:09:19 87° SE 17:15:52 10° SW
Cosmos 1953 Rocket 4.5 17:07:34 10° SSE 17:11:28 30° E 17:15:23 10° NNE
COSMO-SKYMED 1 3.6 17:10:40 10° NE 17:14:22 27° E 17:18:03 10° SSE
Cosmos 2297 Rocket 2.3 17:09:13 10° SSW 17:14:49 69° ESE 17:20:28 10° NNE
Cosmos 1758 Rocket 3.7 17:11:22 10° S 17:15:33 53° E 17:19:46 10° NNE
SL-8 R/B 3.9 17:11:22 10° WSW 17:16:09 68° SSE 17:20:56 10° ENE
Cosmos 1980 4.3 17:13:18 10° NNW 17:18:57 65° WSW 17:24:34 10° SSE
PSLV R/B 4.1 17:15:35 10° NNE 17:19:41 80° WNW 17:23:47 10° SSW
Cosmos 2154 Rocket 4.3 17:15:29 10° SSW 17:21:44 77° W 17:28:00 10° N
H-2A R/B 3.4 17:19:32 10° S 17:23:21 63° WSW 17:27:15 10° NNW
Starlink AR 4.4 17:21:56 10° NW 17:23:53 18° N 17:25:51 10° NE
Cosmos 2227 Rocket 2.2 17:22:24 10° SSW 17:28:02 79° ESE 17:33:43 10° NNE
ISS -3.7 17:25:26 10° WSW 17:28:50 79° NNW 17:31:56 12° ENE
Starlink T 4.5 17:28:16 10° NW 17:30:54 23° N 17:33:12 12° NE
CZ-4 R/B 2.0 17:28:38 10° SE 17:32:24 36° ENE 17:36:15 10° N
Starlink N 4.5 17:30:11 10° NW 17:32:49 23° N 17:35:02 12° NE
YAOGAN 6 2.6 17:30:02 10° SSE 17:33:38 58° ENE 17:37:13 10° N
Starlink Q 4.5 17:32:21 10° NW 17:34:58 23° N 17:37:06 13° NE
ATLAS CENTAUR R/B 1.7 17:31:36 10° NNW 17:35:29 40° NE 17:39:05 10° ESE
Shenzhou-11 Module 2.8 17:33:50 10° WSW 17:36:23 37° S 17:38:37 12° ESE
Starlink P 4.5 17:34:21 10° NW 17:36:59 23° N 17:39:01 13° NE
Cosmos 1328 4.2 17:33:21 10° SSE 17:37:08 41° E 17:40:56 10° NNE
Cosmos 1825 Rocket 3.5 17:33:57 10° S 17:38:17 82° E 17:42:38 10° N
Meteor 1-21 Rocket 4.2 17:32:57 10° S 17:38:35 86° E 17:44:21 10° NNE
Starlink U 4.5 17:36:20 10° NW 17:38:59 23° N 17:40:56 14° NE
Starlink B 4.5 17:38:21 10° NW 17:41:00 23° N 17:42:52 15° NE
Cosmos 2366 rocket 4.1 17:35:15 10° SSE 17:41:15 53° E 17:47:21 10° NNE
NOAA 12 4.3 17:36:10 10° S 17:41:24 77° WSW 17:46:41 10° NNW
Ariane Rocket 4.2 17:38:38 10° ESE 17:42:13 20° ENE 17:45:51 10° NNE
Cosmos 1943 4.4 17:39:27 10° N 17:43:49 22° NE 17:47:06 14° E
FengYun 1-2 T 4.2 17:38:25 10° SSE 17:44:01 74° ENE 17:49:42 10° N
USA 234 3.4 17:37:37 10° SE 17:44:11 82° SW 17:50:45 10° NW
Cosmos 2221 3.5 17:47:41 10° NNE 17:51:12 24° ENE 17:54:43 10° SE
Starlink D 4.4 17:52:06 10° NW 17:54:49 24° N 17:56:06 19° NE
Okean-O 3.0 17:50:25 10° S 17:54:49 70° WSW 17:59:16 10° NNW
Starlink S 4.4 17:54:12 10° NW 17:56:56 25° N 17:58:07 20° NE
CSL-04 Debris 4.2 17:52:17 10° SE 17:57:32 56° ENE 18:02:49 10° N
Cosmos-2242 3.5 17:53:39 10° NNW 17:57:55 65° W 18:02:08 10° S
Cosmos 44 3.3 17:53:35 10° SW 17:58:09 71° NW 18:02:13 12° NNE
Starlink C 4.4 17:56:15 10° NW 17:59:00 25° N 18:00:05 21° NE
Cosmos 1356 Rocket 3.5 17:55:19 10° N 17:59:17 50° ENE 18:03:16 10° SSE
ERBS 4.1 17:56:53 10° W 17:59:38 23° NNW 18:01:43 14° NNE
ADEOS Rocket 4.0 17:54:04 10° NNE 18:00:11 33° E 18:06:44 10° SSE
Starlink E 4.4 17:58:22 10° NW 18:01:07 25° N 18:02:07 21° NE
SKYMED 2 3.5 17:58:14 10° NNE 18:02:37 83° ESE 18:06:57 10° SSW
Starlink J 4.4 18:00:29 10° NW 18:03:15 25° N 18:04:09 22° NE
ATLAS 5 CENTAUR R/B 3.9 17:59:34 10° NNW 18:03:45 37° NE 18:15:55 11° ESE
Starlink AS 4.2 18:01:59 10° NW 18:04:26 23° N 18:04:57 22° NNE
Starlink BA 4.2 18:02:13 10° NW 18:04:39 23° N 18:05:10 22° NNE
Starlink AU 4.2 18:02:26 10° NW 18:04:52 23° N 18:05:23 22° NNE
Cosmos 1703 3.2 18:00:57 10° S 18:04:54 84° E 18:08:54 10° N
Starlink AT 4.2 18:02:40 10° NW 18:05:06 23° N 18:05:36 22° NNE
Starlink BB 4.2 18:02:53 10° NW 18:05:20 23° N 18:05:49 22° NNE
Starlink V 4.3 18:02:35 10° NW 18:05:21 25° N 18:06:09 23° NE
Starlink BC 4.2 18:03:06 10° NW 18:05:33 23° N 18:06:01 22° NNE
Starlink BK 4.2 18:03:20 10° NW 18:05:46 23° N 18:06:14 22° NNE
Starlink AY 4.2 18:03:34 10° NW 18:06:00 23° N 18:06:28 22° NNE
Starlink AW 4.2 18:03:47 10° NW 18:06:14 23° N 18:06:41 22° NNE
Starlink BJ 4.2 18:04:01 10° NW 18:06:28 23° N 18:06:54 22° NNE
Starlink AV 4.2 18:04:15 10° NW 18:06:42 23° N 18:07:07 22° NNE
Starlink BD 4.2 18:04:27 10° NW 18:06:54 23° N 18:07:20 22° NNE
Starlink BE 4.2 18:04:40 10° NW 18:07:08 23° N 18:07:35 23° NNE
Starlink BM 4.2 18:04:56 10° NW 18:07:23 23° N 18:07:47 23° NNE
Starlink H 4.3 18:04:42 10° NW 18:07:29 26° N 18:08:12 23° NNE
Starlink AX 4.2 18:05:09 10° NW 18:07:36 23° N 18:08:00 23° NNE
Starlink BH 4.2 18:05:22 10° NW 18:07:49 23° N 18:08:11 23° NNE
Starlink AZ 4.2 18:05:35 10° NW 18:08:02 23° N 18:08:24 23° NNE
Starlink BG 4.2 18:05:49 10° NW 18:08:16 23° N 18:08:37 23° NNE
Starlink BF 4.2 18:06:02 10° NW 18:08:28 23° N 18:08:50 23° NNE
Starlink BL 4.2 18:06:13 10° NW 18:08:42 24° N 18:09:05 23° NNE
Starlink AH 4.2 18:06:29 10° NW 18:08:57 23° N 18:09:16 23° NNE
Starlink AQ 4.2 18:06:33 10° NW 18:09:02 24° N 18:09:23 23° NNE
Starlink AC 4.2 18:06:43 10° NW 18:09:10 23° N 18:09:29 23° NNE
Starlink X 4.2 18:06:57 10° NW 18:09:24 23° N 18:09:42 23° NNE
Starlink AE 4.2 18:07:06 10° NW 18:09:37 24° N 18:09:57 23° NNE
Starlink F 4.3 18:06:50 10° NW 18:09:38 26° N 18:10:15 24° NNE
Starlink Z 4.2 18:07:22 10° NW 18:09:49 24° N 18:10:07 23° NNE
Starlink AK 4.2 18:07:36 10° NW 18:10:04 24° N 18:10:21 23° NNE
Cosmos 1727 Rocket 3.9 18:04:06 10° N 18:10:18 70° E 18:16:26 10° SSE
Starlink AL 4.2 18:07:51 10° NW 18:10:19 24° N 18:10:35 23° NNE
Starlink AD 4.2 18:08:05 10° NW 18:10:33 24° N 18:10:48 23° NNE
Starlink Y 4.2 18:08:31 10° NW 18:10:59 24° N 18:11:13 23° NNE
Starlink AG 4.2 18:08:44 10° NW 18:11:12 24° N 18:11:26 23° NNE
Starlink W 4.2 18:08:55 10° NW 18:11:25 24° N 18:11:40 24° NNE
Starlink AJ 4.2 18:09:10 10° NW 18:11:38 24° N 18:11:51 24° NNE
Starlink G 4.2 18:08:57 10° NW 18:11:46 26° N 18:12:17 25° NNE
Starlink AM 4.2 18:09:39 10° NW 18:12:07 24° N 18:12:19 24° NNE
Starlink AP 4.2 18:09:51 10° NW 18:12:19 24° N 18:12:30 24° NNE
Starlink AA 4.2 18:10:05 10° NW 18:12:33 24° N 18:12:44 24° NNE
Starlink AF 4.2 18:10:18 10° NW 18:12:46 24° N 18:12:56 24° NNE
Starlink AB 4.2 18:10:33 10° NW 18:13:01 24° N 18:13:10 24° NNE
Starlink AN 4.2 18:10:47 10° NW 18:13:16 24° N 18:13:24 24° NNE
Starlink L 4.2 18:11:04 10° NW 18:13:53 27° N 18:14:20 26° NNE
SL-8 Rocket 4.3 18:08:25 10° SSW 18:14:42 72° W 18:21:00 10° N
Starlink A 4.2 18:13:12 10° NW 18:16:02 27° N 18:16:23 26° NNE
YAOGAN 1 2.5 18:13:30 10° SSE 18:17:49 87° E 18:22:11 10° NNW
CSL-04 Rocket 3.6 18:12:29 10° SSE 18:18:00 80° ENE 18:23:35 10° NNW
Starlink R 4.2 18:15:21 10° NW 18:18:11 27° N 18:18:26 27° NNE
ATLAS 5 CENTAUR R/B 4.2 18:17:18 10° NNW 18:19:09 12° N 18:21:05 10° NNE
Cosmos 1455 3.5 18:15:54 10° NNW 18:19:31 42° W 18:23:04 10° SSW
Starlink K 4.2 18:17:27 10° NW 18:20:18 28° NNE 18:20:28 27° NNE
Starlink M 4.2 18:19:33 10° NW 18:22:25 28° NNE 18:22:30 28° NNE
Cosmos 2251 Rocket 3.9 18:19:03 10° NNW 18:24:19 66° WSW 18:29:36 10° S
Cosmos 1140 Rocket 4.3 18:20:24 10° N 18:24:56 28° ENE 18:24:58 28° ENE
H-2A R/B 3.1 18:27:12 25° NE 18:27:12 25° NE 18:30:29 10° N
Cosmos 1939 Rocket 2.7 18:23:32 10° SSE 18:27:27 84° E 18:31:29 10° N
CZ-2D R/B 3.2 18:27:55 10° SSE 18:31:45 86° WSW 18:35:38 10° NNW
Cosmos 44 Rocket 3.2 18:35:38 10° SSW 18:40:21 58° ESE 18:41:16 49° ENE
SL-16 R/B 3.6 18:39:28 10° NW 18:44:41 39° WSW 18:49:52 10° S
Cosmos 1821 Rocket 3.9 18:42:15 10° S 18:48:33 70° E 18:54:49 10° NNE
Cosmos 2227 4.2 18:43:36 10° S 18:49:14 59° ESE 18:50:52 43° NE
COSMO-SKYMED 1 4.3 18:46:40 10° N 18:50:33 32° WNW 18:54:25 10° SW
USA 267 4.0 18:48:27 24° NE 18:52:01 44° NNW 18:58:07 10° W
Cosmos 1842 Rocket 4.1 18:48:55 10° NNW 18:53:21 60° W 18:57:45 10° S
Cosmos 1371 Rocket 4.3 18:51:57 10° S 18:56:02 45° SE 18:56:02 45° SE
Cosmos 1603 3.5 18:52:11 10° NNW 18:57:54 83° ENE 19:00:32 33° SSE
SL-8 R/B 3.7 18:53:59 10° W 18:58:47 68° N 18:59:13 64° NNE
Atlas Centaur 2 4.1 18:57:01 10° SSW 18:59:05 13° S 19:00:09 12° SSE
Cosmos 2297 Rocket 4.2 18:54:53 10° W 18:59:24 24° NW 19:03:57 10° N
Cosmos 1190 Rocket 3.9 18:54:12 10° NNW 18:59:28 61° ENE 18:59:35 61° ENE
Cosmos 407 Rocket 3.3 18:54:22 10° NNW 18:59:39 70° ENE 19:00:24 61° ESE
ARGOS 3.9 19:05:26 37° NNE 19:05:26 37° NNE 19:08:59 10° N
ISS -1.8 19:02:51 10° WNW 19:04:54 26° NW 19:04:54 26° NW
Cosmos 2263 Rocket 2.1 19:01:02 10° S 19:06:18 62° ESE 19:06:18 62° ESE
CZ-4 R/B 4.0 19:04:22 10° SW 19:07:32 21° W 19:10:46 10° NW
CENTAUR R/B 4.5 19:04:25 10° SSE 19:04:36 11° SSE 19:04:36 11° SSE
NOSS 3-2 (A) 3.7 19:06:47 10° SSW 19:11:18 46° SSE 19:11:18 46° SSE
Cosmos 2227 Rocket 4.3 19:08:29 10° W 19:12:46 21° NW 19:17:03 10° N
ATLAS CENTAUR R/B 3.6 19:11:05 10° WNW 19:14:08 21° WSW 19:16:35 12° SSW
Cosmos 2123 Rocket 3.8 19:08:24 10° N 19:14:44 72° E 19:16:36 47° SSE
Timation 1 Rocket 4.2 19:08:55 10° SSW 19:14:46 68° ESE 19:14:46 68° ESE
Ariane Rocket 3.3 19:15:42 10° S 19:20:43 64° WSW 19:25:47 10° NNW
CZ-2C R/B 4.0 19:22:59 38° N 19:22:59 38° N 19:26:33 10° N
Cosmos 1934 Rocket 3.7 19:15:48 10° S 19:21:52 78° E 19:22:15 74° NE
Cosmos 1943 3.2 19:22:50 10° NNW 19:28:29 76° WSW 19:29:00 70° SSW
Cosmos 2221 4.2 19:24:58 10° NNW 19:28:48 32° W 19:32:39 10° SSW
ADEOS Rocket 3.9 19:39:19 10° N 19:45:51 55° WNW 19:52:59 10° SW
USA 238 DEB 3.7 19:45:29 10° SW 19:51:29 74° SW 19:51:29 74° SW
USA 238 3.7 19:45:37 10° SW 19:51:32 72° SW 19:51:32 72° SW
H-2A R/B 3.8 20:07:48 27° NW 20:07:48 27° NW 20:10:20 10° NNW
